Carlsbad, NM

5:12 PM MST on February 19, 2017 (GMT -0700)
Cavern City

Weather History for KCNM - April, 2013

Change the Weather History Date:

Tuesday, April 2, 2013

  Actual Average Record
Temperature  
Mean Temperature 54 °F -  
Max Temperature 64 °F 75 °F 95 °F (2011)
Min Temperature 44 °F 43 °F 27 °F (1970)
Degree Days  
Heating Degree Days 12    
Growing Degree Days 4 (Base 50)    
Moisture  
Dew Point 38 °F    
Average Humidity 62    
Maximum Humidity 81    
Minimum Humidity 41    
Precipitation  
Precipitation 0.00 in - - ()
Sea Level Pressure  
Sea Level Pressure 29.92 in    
Wind  
Wind Speed 14 mph (North)    
Max Wind Speed 26 mph    
Max Gust Speed 33 mph    
Visibility 9 miles    
Events      
Averages and records for this station are not official NWS values.
T = Trace of Precipitation, MM = Missing Value Source: NWS Daily Summary

Daily Weather History Graph

Daily Weather History Graph

Search for Another Location

Airport or City:

Trip Planner

Search our weather history database for the weather conditions in past years. The results will help you decide how hot, cold, wet, or windy it might be!

Date:

Astronomy

Apr. 02, 2013 Rise Set
Actual Time 6:43 AM MDT 7:17 PM MDT
Civil Twilight 6:18 AM MDT 7:42 PM MDT
Nautical Twilight 5:49 AM MDT 8:11 PM MDT
Astronomical Twilight 5:20 AM MDT 8:41 PM MDT
Moon 1:11 AM MDT (4/2) 11:50 AM MDT (4/2)
Length of Visible Light 13h 23m
Length of Day
12h 34m
Waning Gibbous, 55% of the Moon is Illuminated
Apr 2
Waning Gibbous
Apr 2
Last Quarter
Apr 10
New
Apr 18
First Quarter
Apr 25
Full

Hourly Weather History & Observations

Time (MDT) Temp. Windchill Dew Point Humidity Pressure Visibility Wind Dir Wind Speed Gust Speed Precip Events Conditions
12:53 AM 59.0 °F - 48.0 °F 67% 29.70 in 10.0 mi SW 4.6 mph - N/A   Clear
1:53 AM 55.0 °F - 46.0 °F 72% 29.72 in 10.0 mi East 3.5 mph - N/A   Clear
2:53 AM 57.0 °F - 37.9 °F 49% 29.74 in 10.0 mi NW 23.0 mph 28.8 mph N/A   Clear
3:53 AM 54.0 °F - 39.9 °F 59% 29.77 in 10.0 mi NW 24.2 mph 32.2 mph N/A   Clear
4:53 AM 52.0 °F - 39.9 °F 63% 29.81 in 9.0 mi NW 25.3 mph 32.2 mph N/A   Clear
5:53 AM 48.9 °F - 39.0 °F 69% 29.84 in 8.0 mi NW 26.5 mph 33.4 mph N/A   Partly Cloudy
6:05 AM 50.0 °F - 39.2 °F 66% 29.98 in 8.0 mi NW 24.2 mph 32.2 mph N/A   Mostly Cloudy
6:53 AM 48.0 °F - 37.9 °F 68% 29.89 in 9.0 mi NW 23.0 mph 33.4 mph N/A   Overcast
7:53 AM 46.9 °F - 37.9 °F 71% 29.96 in 7.0 mi NNW 23.0 mph 28.8 mph N/A   Overcast
8:26 AM 46.4 °F 39.8 °F 37.4 °F 71% 30.06 in 9.0 mi NW 16.1 mph - N/A   Overcast
8:53 AM 45.0 °F 37.6 °F 39.0 °F 80% 29.99 in 8.0 mi NNW 17.3 mph - N/A   Overcast
9:01 AM 44.6 °F 36.9 °F 39.2 °F 81% 30.07 in 7.0 mi NW 18.4 mph - N/A   Overcast
9:28 AM 44.6 °F 36.1 °F 37.4 °F 76% 30.08 in 8.0 mi NNW 21.9 mph - N/A   Overcast
9:53 AM 45.0 °F 37.4 °F 37.9 °F 76% 30.01 in 10.0 mi NNW 18.4 mph - N/A   Overcast
10:53 AM 48.0 °F - 37.9 °F 68% 29.99 in 10.0 mi NNW 16.1 mph - N/A   Overcast
11:15 AM 48.2 °F - 37.4 °F 66% 30.08 in 10.0 mi NNW 16.1 mph - N/A   Overcast
11:53 AM 50.0 °F - 37.0 °F 61% 29.97 in 10.0 mi NW 11.5 mph - N/A   Mostly Cloudy
12:09 PM 50.0 °F - 37.4 °F 62% 30.04 in 10.0 mi North 9.2 mph - N/A   Scattered Clouds
12:53 PM 54.0 °F - 37.0 °F 53% 29.93 in 10.0 mi NNW 10.4 mph - N/A   Clear
1:53 PM 57.9 °F - 37.9 °F 47% 29.89 in 10.0 mi NNE 8.1 mph - N/A   Mostly Cloudy
2:53 PM 61.0 °F - 37.9 °F 42% 29.86 in 10.0 mi Calm Calm - N/A   Mostly Cloudy
3:53 PM 63.0 °F - 39.9 °F 43% 29.81 in 10.0 mi Variable 4.6 mph - N/A   Clear
4:53 PM 62.1 °F - 37.9 °F 41% 29.81 in 10.0 mi East 12.7 mph 17.3 mph N/A   Clear
5:53 PM 60.1 °F - 37.9 °F 44% 29.84 in 10.0 mi East 12.7 mph - N/A   Clear
6:53 PM 55.9 °F - 37.9 °F 51% 29.85 in 10.0 mi East 10.4 mph - N/A   Clear
7:53 PM 51.1 °F - 37.9 °F 61% 29.89 in 10.0 mi ENE 12.7 mph - N/A   Clear
8:53 PM 48.0 °F - 37.0 °F 66% 29.93 in 10.0 mi ENE 12.7 mph - N/A   Clear
9:28 PM 48.2 °F - 37.4 °F 66% 30.04 in 9.0 mi NE 10.4 mph - N/A   Mostly Cloudy
9:53 PM 48.0 °F - 36.0 °F 63% 30.00 in 9.0 mi NE 13.8 mph - N/A   Overcast
10:53 PM 46.9 °F - 36.0 °F 66% 30.02 in 10.0 mi NNE 10.4 mph - N/A   Overcast
11:53 PM 46.0 °F 39.6 °F 35.1 °F 66% 30.04 in 10.0 mi NNE 15.0 mph - N/A   Overcast